Tracking 32422 objects as of 7-Dec-2025
HD Live streaming from Space Station
objects crossing your sky now

STARLINK-35002

Track STARLINK-35002 now!
10-day predictions
STARLINK-35002 is classified as:


NORAD ID: 65291
Int'l Code: 2025-184U
Perigee: 556.7 km
Apogee: 556.7 km
Inclination: 97.6 °
Period: 95.6 minutes
Semi major axis: 6927 km
RCS: Unknown
Launch date: August 22, 2025
Source: United States (US)
Launch site: AIR FORCE WESTERN TEST RANGE (AFWTR)
Your satellite tracking list
Your tracking list is empty




NASA's NSSDC Master Catalog

Two Line Element Set (TLE):
1 65291U 25184U   25340.89715981  .00002615  00000-0  18547-3 0  9997
2 65291  97.6034  31.1177 0000030   7.4641 352.6586 15.05636144 17333
Source of the keplerian elements: AFSPC